Tracking 26911 objects as of 8-Feb-2023
HD Live streaming from Space Station
objects crossing your sky now

COSMOS 1934 DEB

Track COSMOS 1934 DEB now!
10-day predictions


NORAD ID: 21912
Int'l Code: 1988-023C
Perigee: 929.1 km
Apogee: 986.5 km
Inclination: 83.0 °
Period: 104.1 minutes
Semi major axis: 7328 km
RCS: 0.1428 m2 (medium)
Launch date: March 22, 1988
Source: Commonwealth of Independent States (former USSR) (CIS)
Launch site: PLESETSK MISSILE AND SPACE COMPLEX (PKMTR)

Note: This is SATELLITE DEBRIS
Your satellite tracking list
Your tracking list is empty




NASA's NSSDC Master Catalog

Two Line Element Set (TLE):
1 21912U 88023C   23039.44168149  .00000740  00000-0  65142-3 0  9992
2 21912  82.9552 284.5945 0039174  87.8995  31.1527 13.83734543632501
Source of the keplerian elements: AFSPC